Regional Weather Roundup
Issued by NWS

Home | Current Version | Previous Version | Graphics & Text | Print | Product List | Glossary On
Versions: 1 2 3 4 5 6 7 8 9 10 11 12 13 14 15 16 17 18 19 20 21 22 23 24 25 26 27 28 29 30 31 32 33 34 35 36 37 38 39 40 41 42 43 44 45 46 47 48 49 50
000
ASUS45 KBOU 292207
RWRCO

WEATHER ROUNDUP FOR COLORADO
NATIONAL WEATHER SERVICE DENVER/BOULDER CO
400 PM MDT FRI MAY 29 2015

NOTE: "FAIR" INDICATES FEW OR NO CLOUDS BELOW 12000 FEET WITH NO
SIGNIFICANT WEATHER AND/OR OBSTRUCTIONS TO VISIBILITY.

COZ001>005-013-030-031-292300-
...NORTHWEST COLORADO...

CITY           SKY/WX    TMP DP  RH WIND       PRES   REMARKS
CRAIG          PTSUNNY   61  44  53 NE10      30.27S
HAYDEN         PTSUNNY   55  39  54 NE12      30.29S
MEEKER         PTSUNNY   62  41  46 NE13      30.26F
MOUNT WERNER   NOT AVBL
STEAMBOAT SPGS CLOUDY    49  42  76 NW8       30.31S
WALDEN         PTSUNNY   50  36  57 NW9       30.34S
$$

COZ006>008-011-292300-
...WEST CENTRAL VALLEYS...

CITY           SKY/WX    TMP DP  RH WIND       PRES   REMARKS
GRAND JUNCTION SUNNY     73  39  29 W9        30.16F
MONTROSE       MOSUNNY   72  35  25 VRB3      30.22F
EAGLE          PTSUNNY   72  39  30 SW6       30.24F
RIFLE          PTSUNNY   68  37  32 MISG      30.19F
DELTA          MOSUNNY   78  28  16 SW17      30.16F
NUCLA          MOSUNNY   72  30  21 N7        30.22F
$$

COZ017>023-064>068-292300-
...SOUTHWEST COLORADO...

CITY           SKY/WX    TMP DP  RH WIND       PRES   REMARKS
DURANGO        SUNNY     74  30  19 W20G28    30.16F
CORTEZ         MOSUNNY   75  29  18 N15G23    30.18F
PAGOSA SPRINGS CLOUDY    63  26  25 CALM      30.23S THUNDER
TELLURIDE      MOSUNNY   58  29  32 NW7       30.35F
WOLF CREEK PAS NOT AVBL
$$

COZ009-010-012-014-032>034-037-058>063-292300-
...CENTRAL COLORADO...

CITY           SKY/WX    TMP DP  RH WIND       PRES   REMARKS
ASPEN          PTSUNNY   60  32  34 NW9       30.28S
BUENA VISTA    PTSUNNY   61  23  23 NW6       30.26S
COPPER MTN     CLOUDY    45  23  42 W16G24    30.48R THUNDER
BERTHOUD PASS  CLOUDY    32  25  74 NW18G24   30.50R WCI  20
COTTONWOOD PAS PTSUNNY   57  19  23 SW7       30.37S
GUNNISON       MOSUNNY   59  30  33 NE9       30.29F
KREMMLING      PTSUNNY   61  34  36 NE7       30.29S THUNDER
LEADVILLE      CLOUDY    49  23  36 NW14      30.36F
MONARCH PASS   PTSUNNY   37  27  65 W18G35    30.57S
SALIDA         PTSUNNY   67  31  26 SW14G25   30.30F
SUNLIGHT       MOSUNNY   48  30  49 W3        30.47S THUNDER
WILKERSON PASS CLOUDY    46  23  39 W5        30.46S
$$

COZ069>075-292300-
...SAN LUIS VALLEY/SANGRE DE CRISTO MOUNTAINS...

CITY           SKY/WX    TMP DP  RH WIND       PRES   REMARKS
ALAMOSA        CLOUDY    62  23  22 SW17G30   30.23R
LA VETA PASS   PTSUNNY  N/A N/A N/A MISG      30.37S
SAGUACHE       MOSUNNY   68  27  21 NW17G25   30.23F
$$

COZ035-036-038>040-292300-
...NORTHERN COLORADO FRONT RANGE...

CITY           SKY/WX    TMP DP  RH WIND       PRES   REMARKS
DENVER INTL AP PTSUNNY   63  43  48 N21G28    30.21R
DMNS CITY PARK   N/A     63  41  45 NE16G26   30.20R
AURORA         PTSUNNY   65  43  45 N18       30.21S
FRONT RANGE AP PTSUNNY   64  46  52 NE10G20   30.22S
ERIE MUNI ARPT LGT RAIN  58  47  66 N10G16    30.23R
BOULDER MUN AP CLOUDY    52  48  87 W7        30.23R
CENTENNIAL     PTSUNNY   64  43  46 NE15G22   30.20S
BROOMFIELD     PTSUNNY   59  46  63 N17G23    30.21S
FORT COLLINS   CLOUDY    54  46  76 CALM      30.26R THUNDER
LONGMONT       CLOUDY    58  49  72 N7        30.25R
$$

COZ041-046-047-076>085-087-088-292300-
...PIKES PEAK/PALMER DIVIDE AND SOUTHERN FOOTHILLS...

CITY           SKY/WX    TMP DP  RH WIND       PRES   REMARKS
COLO. SPRINGS  TSTM      54  44  69 E10       30.22R
A. F. ACADEMY  LGT RAIN  61  37  41 NW8       30.21S
ELLICOTT       CLOUDY   N/A N/A N/A NE8       30.21S THUNDER
FALCON         MIX PCPN  59  36  43 NE10      30.24S
FORT CARSON    PTSUNNY   61  43  51 NE6       30.19S
LIMON          SUNNY     63  47  55 N21G29    30.19R
MONUMENT HILL  MOSUNNY   61  39  44 W17G23    30.24F
TRINIDAD       PTSUNNY   68  44  42 E8        30.15F
$$

COZ042>045-048>051-090-091-292300-
...NORTHEAST COLORADO...

CITY           SKY/WX    TMP DP  RH WIND       PRES   REMARKS
GREELEY ARPT   CLOUDY    54  50  87 NE7       30.22S
AKRON          LGT RAIN  55  51  86 N13       30.18F
BURLINGTON     MOSUNNY   65  50  58 N25G38    30.13F
WRAY           LGT RAIN  59  52  76 N15       30.16R
STERLING       PTSUNNY   63  48  59 N16G25    30.19R
HOLYOKE        CLOUDY    59  48  67 N23       30.19R
FORT MORGAN    PTSUNNY   63  48  58 N16G22    30.20S
$$

COZ086-089-092>099-292300-
...SOUTHEAST COLORADO...

CITY           SKY/WX    TMP DP  RH WIND       PRES   REMARKS
PUEBLO         MOSUNNY   71  45  39 E16       30.11F
LA JUNTA       MOSUNNY   70  45  40 NE18      30.10F
LAMAR          PTSUNNY   72  46  39 NE6       30.07F
SPRINGFIELD      N/A     72  49  44 NE17      30.10F
$$


USA.gov is the U.S. government's official web portal to all federal, state and local government web resources and services.